Regional Weather Roundup
Issued by NWS Spokane, WA

Home | Current Version | Previous Version | Text Only | Print | Product List | Glossary On
Versions: 1 2 3 4 5 6 7 8 9 10 11 12 13 14 15 16 17 18 19 20 21 22 23 24 25 26 27 28 29 30 31 32 33 34 35 36 37 38 39 40 41 42 43 44 45 46 47 48 49 50
000
NZUS01 KOTX 051510
RWROTX
EASTERN WASHINGTON/NORTHERN IDAHO ROUNDUP
NATIONAL WEATHER SERVICE, SPOKANE WA
700 AM PST THU MAR 05 2015

Note: "fair" indicated few or no clouds below 12,000 feet with no
significant weather and/or obstructions to visibility.

...NORTHEAST WASHINGTON AND NORTHERN IDAHO PANHANDLE...

CITY           SKY/WX    TMP DP  RH WIND       PRES   REMARKS
SPOKANE INTL   CLOUDY    26  19  74 NE3       30.28R
SPOKANE DOWNTO PTCLDY    26  19  74 CALM      30.32R
COEUR D ALENE  CLEAR     23  16  74 CALM      30.29S
DEER PARK      PTCLDY    19  16  88 MISG      30.30R
SANDPOINT      CLEAR     21  19  93 CALM      30.32S
BONNERS FERRY  FAIR      19  16  86 CALM      30.32R

...SOUTHEAST WASHINGTON AND SOUTHERN IDAHO PANHANDLE...

CITY           SKY/WX    TMP DP  RH WIND       PRES   REMARKS
WALLA WALLA    MOCLDY    34  21  59 CALM      30.28S
PULLMAN/MOSCOW MOCLDY    31  15  52 E7        30.29S WCI  24
LEWISTON       MOCLDY    31  20  63 E3        30.33S
LOWELL           N/A     25  19  78 NW7       30.46R WCI  17

...COLUMBIA BASIN...

CITY           SKY/WX    TMP DP  RH WIND       PRES   REMARKS
EPHRATA        PTCLDY    30  22  72 N8        30.29R WCI  22
MOSES LAKE     PTCLDY    26  21  81 N6        30.30S WCI  19
TRI CITIES     PTCLDY    23  20  88 N3        30.34R
HERMISTON      PTCLDY    27  19  72 S3        30.32R
PENDLETON      MOCLDY    35  17  47 S5        30.28R

...EAST SLOPES CASCADES...

CITY           SKY/WX    TMP DP  RH WIND       PRES   REMARKS
THE DALLES     CLEAR     29  24  82 CALM      30.35R
YAKIMA         PTCLDY    26  21  81 NW6       30.31R WCI  19
ELLENSBURG     MOCLDY    28  23  81 NE3       30.27R
WENATCHEE      MOCLDY    33  25  72 CALM      30.30R
OMAK           PTCLDY    26  19  74 NW3       30.32R

...SOUTHERN BRITISH COLUMBIA...

CITY           SKY/WX    TMP DP  RH WIND       PRES   REMARKS
PENTICTON      MOCLDY    23  16  74 N3        30.34R
CASTLEGAR      MOCLDY    19  16  86 SE3       30.37R
CRANBROOK      MOCLDY    12   7  79 CALM      30.30R

...WESTERN MONTANA...

CITY           SKY/WX    TMP DP  RH WIND       PRES   REMARKS
MISSOULA       PTCLDY    19  13  77 CALM      30.33S

...NEIGHBORING CITIES...

CITY           SKY/WX    TMP DP  RH WIND       PRES   REMARKS
SEATTLE        MOCLDY    38  27  64 SE3       30.33R
CALGARY        MOCLDY    32  12  43 S5        29.98R WCI  27



USA.gov is the U.S. government's official web portal to all federal, state and local government web resources and services.